SCP
2 2 2 2 2 1 1 2 2 2 1 1 1 1 1 1 1 1 1 1 1 1 1 1 2 2 2 2 2 1 1 1 1 1 1 1 1 1 0 0 0 0 0
2 2 2 2 1 1 1 2 2 2 1 1 1 1 1 1 1 1 1 1 1 1 1 2 2 2 2 2 2 2 1 1 1 1 1 1 1 1 1 0 0 0 0
2 2 2 2 1 1 1 1 1 2 2 2 2 2 1 1 1 1 2 2 2 1 2 2 2 2 2 2 2 2 2 2 2 2 2 1 1 1 1 1 0 0 0
2 2 2 2 2 1 1 1 2 2 2 2 2 2 2 1 1 1 2 2 1 1 2 2 2 2 2 2 2 2 2 2 2 2 2 1 1 1 1 1 1 0 0
1 2 2 2 2 2 1 1 2 2 2 2 2 2 2 1 1 1 1 1 1 1 2 2 2 2 2 2 2 2 2 2 2 2 1 1 1 1 1 1 1 1 0
1 1 1 1 1 1 1 1 1 1 2 2 2 2 2 2 1 1 1 1 1 1 2 2 2 2 2 2 2 2 2 2 2 1 1 1 1 1 1 1 1 1 0
0 1 1 1 1 1 1 1 1 1 1 1 1 2 2 2 1 1 1 1 1 1 1 2 2 2 2 2 2 2 2 2 2 1 1 1 1 1 1 1 1 1 0
0 0 0 0 0 0 0 0 0 0 1 1 1 1 1 1 1 1 1 1 1 1 1 2 2 2 3 2 2 2 2 2 2 2 1 1 1 1 1 1 1 1 0
0 0 0 0 0 0 0 0 0 0 0 0 0 0 0 0 1 1 1 1 1 2 2 2 2 2 3 3 2 2 2 2 2 2 1 1 1 1 1 1 1 1 1
0 0 0 0 0 0 0 0 0 0 0 0 0 0 0 0 0 0 0 1 1 1 1 2 2 3 3 3 2 2 2 1 1 1 1 1 1 1 1 1 1 1 1
0 0 0 0 0 0 0 0 0 0 0 0 0 0 0 0 0 0 0 0 0 1 1 1 2 3 3 3 2 2 1 1 1 1 1 1 1 1 1 1 1 1 1
0 0 0 0 0 0 0 0 0 0 0 0 0 0 0 0 0 0 0 0 0 0 0 1 1 2 2 2 2 1 1 1 1 1 1 1 1 1 1 1 1 1 1
0 0 0 0 0 0 0 0 0 0 0 0 0 0 0 0 0 0 0 0 0 0 0 0 0 1 1 1 1 1 1 1 1 1 1 1 1 1 1 1 1 1 1
0 0 0 0 0 0 0 0 0 0 0 0 0 0 0 0 0 0 0 0 0 0 0 0 0 0 1 1 1 1 1 1 1 1 1 1 1 1 1 1 1 1 1
0 0 0 0 0 0 0 0 0 0 0 0 0 0 0 0 0 0 0 0 0 0 0 0 0 0 1 1 1 1 1 1 0 0 0 0 0 0 1 1 1 1 1
0 0 0 0 0 0 0 0 0 0 0 0 0 0 0 0 0 0 0 0 0 0 0 0 0 0 0 1 0 0 0 0 0 0 0 0 0 0 0 0 0 0 0
0 0 0 0 0 0 0 0 0 0 0 0 0 0 0 0 0 0 0 0 0 0 0 0 0 0 0 0 0 0 0 0 0 0 0 0 0 0 0 0 0 0 0
0 0 0 0 0 0 0 0 0 0 0 0 0 0 0 0 0 0 0 0 0 0 0 0 0 0 0 0 0 0 0 0 0 0 0 0 0 0 0 0 0 0 0
0 0 0 0 0 0 0 0 0 0 0 0 0 0 0 0 0 0 0 0 0 0 0 0 0 0 0 1 0 0 0 0 0 0 0 0 0 0 0 0 0 0 0
0 0 0 0 0 0 0 0 0 0 0 0 0 0 0 0 0 0 0 0 0 0 0 0 0 0 1 1 0 0 0 0 0 0 0 0 0 0 0 0 0 0 0
0 0 0 0 0 0 0 0 0 0 0 0 0 0 0 0 0 0 0 0 0 0 0 0 0 0 1 1 1 1 0 0 0 0 0 0 0 0 0 0 0 0 0
0 0 0 0 0 0 0 0 0 0 0 0 0 0 0 0 0 0 0 0 0 0 0 0 0 0 1 1 1 1 0 0 0 0 0 0 0 0 0 0 0 0 0
0 0 0 0 0 0 0 0 0 0 0 0 0 0 0 0 0 0 0 0 0 0 0 0 0 0 1 1 1 1 1 0 0 0 0 0 0 0 0 0 0 0 0
0 0 0 0 0 0 0 0 0 0 0 0 0 0 0 0 0 0 0 0 0 0 0 0 0 0 0 1 1 1 1 0 0 0 0 0 0 0 0 0 0 0 0
0 0 0 0 0 0 0 0 0 0 0 0 0 0 0 0 0 0 0 0 0 0 0 0 0 0 0 0 1 1 1 0 0 0 0 0 0 0 0 0 0 0 0
0 0 0 0 0 0 0 0 0 0 0 0 0 0 0 0 0 0 0 0 0 0 0 0 0 0 0 0 0 1 1 0 0 0 0 0 0 0 0 0 0 0 0
Wind_Speed
3 2 2 2 2 2 3 3 3 4 5 6 6 8 8 8 8 7 5 13 15 15 16 17 18 20 20 20 20 20 20 19 18 17 16 16 15 15 15 14 13 13 12
2 2 2 2 2 2 2 2 3 3 3 4 6 7 8 7 8 8 7 9 15 15 16 17 17 19 20 21 21 21 21 20 18 18 17 16 16 16 16 15 14 13 13
1 1 1 2 2 2 2 1 2 2 3 4 6 7 7 7 8 8 8 6 7 13 16 17 16 16 18 21 22 22 21 20 19 19 18 18 17 16 16 16 15 14 14
1 1 1 2 1 1 1 1 1 2 3 4 5 6 6 6 8 8 8 8 7 7 11 17 17 17 18 21 23 23 22 21 20 20 20 19 18 17 17 16 16 15 15
0 0 1 2 1 1 1 2 1 2 3 4 5 5 6 6 7 8 9 10 10 9 8 11 16 17 19 21 21 23 22 21 21 21 21 21 20 19 18 17 17 16 16
1 0 1 1 1 1 1 2 2 2 3 4 5 6 6 7 7 8 9 9 9 11 10 10 9 11 17 18 19 21 22 22 22 22 22 22 22 20 19 19 18 17 17
2 1 1 1 1 1 2 2 2 2 2 2 2 4 5 7 8 7 7 7 9 10 10 11 9 7 7 15 18 20 21 22 22 22 22 22 22 21 20 20 19 18 18
2 2 1 2 2 2 3 3 2 1 2 1 1 2 4 4 3 5 5 6 7 7 9 11 10 9 8 6 10 18 21 22 22 22 22 22 21 21 20 20 20 19 19
3 2 2 2 2 2 3 3 3 3 2 2 3 2 2 3 4 3 3 4 5 5 7 8 10 10 10 8 9 14 20 21 22 22 22 21 21 20 20 21 21 21 20
3 3 3 3 3 2 3 3 3 3 3 3 2 3 4 3 3 4 3 3 4 6 7 7 8 10 10 9 10 14 18 19 21 22 22 22 22 21 21 21 22 22 21
4 4 3 3 3 3 3 4 3 3 3 3 3 2 3 3 4 4 5 4 4 4 5 6 6 6 8 9 9 13 17 19 19 20 20 21 22 22 22 22 23 23 22
4 4 4 3 3 3 4 4 3 4 4 4 4 3 3 2 3 3 4 5 5 4 4 4 4 5 6 8 12 15 17 17 17 18 19 19 20 21 22 22 23 22 22
3 5 4 3 4 4 4 4 4 4 4 5 5 4 4 4 3 3 4 4 5 4 4 3 3 3 4 5 7 13 15 16 16 17 17 17 18 19 20 21 21 21 21
5 6 5 5 5 5 5 4 4 5 4 5 6 5 4 4 4 4 3 3 4 4 3 3 2 2 2 3 5 9 8 13 15 15 15 16 16 17 18 18 18 18 18
5 6 6 6 6 6 6 5 4 5 5 5 6 6 5 4 4 4 4 3 3 4 4 3 2 2 2 1 2 4 5 8 12 14 14 14 15 15 16 16 16 16 15
6 6 7 6 6 6 6 5 5 6 6 6 5 6 6 5 4 4 4 4 4 4 4 2 2 2 2 1 0 2 3 6 8 11 12 12 13 14 14 15 15 15 15
6 7 7 7 7 7 7 6 7 7 7 7 6 7 7 6 5 4 4 4 4 4 6 4 2 2 1 0 1 2 2 3 3 7 9 10 11 11 12 12 13 13 13
7 7 7 8 8 8 7 7 8 8 8 8 8 8 8 6 7 5 5 6 5 5 5 5 3 2 2 1 1 3 2 3 3 6 8 9 9 10 10 10 11 11 11
8 8 7 8 9 9 8 8 8 9 9 9 9 9 9 8 8 6 6 6 5 5 5 5 4 2 2 2 2 3 4 4 4 6 8 8 9 9 9 9 9 9 10
8 8 8 9 9 9 9 9 9 9 9 9 9 9 9 9 9 9 7 8 7 6 5 5 4 3 2 2 3 3 4 3 4 4 6 6 9 10 9 9 9 9 10
9 8 8 9 9 8 8 9 9 9 9 9 9 9 10 12 13 10 8 8 8 6 6 5 5 4 3 4 4 3 4 5 4 3 5 4 5 5 6 7 8 9 10
9 8 9 9 9 8 10 13 11 9 9 9 10 9 10 12 14 15 16 14 12 9 8 6 5 5 5 4 4 5 5 6 4 4 4 4 4 5 4 4 7 9 9
8 9 9 9 10 11 14 15 15 10 10 10 10 9 9 9 11 10 12 15 15 16 13 8 7 7 6 6 7 7 6 5 4 6 5 4 3 4 3 5 9 9 9
8 8 9 9 9 11 13 13 14 11 9 10 11 11 11 11 10 9 9 10 10 11 13 10 8 7 7 6 7 6 6 5 5 4 4 5 3 3 3 4 7 9 10
9 8 8 9 9 11 12 12 11 7 8 10 10 10 11 12 13 13 10 10 9 9 10 11 10 9 9 10 8 6 7 7 5 4 2 5 5 4 3 3 5 9 10
9 9 9 9 9 10 11 12 10 5 7 8 8 9 13 13 13 13 11 10 10 9 7 8 8 8 8 9 12 9 8 8 6 5 4 5 5 5 4 2 2 4 6
Wind_Direction
219 219 238 244 253 257 254 254 253 251 249 246 241 240 241 237 235 228 232 243 239 233 232 232 226 219 214 209 208 207 206 204 200 196 195 194 192 190 189 189 188 185 184
219 216 235 244 250 254 252 248 256 256 255 252 252 249 247 244 242 234 231 241 242 237 233 232 231 225 218 215 212 210 208 207 203 200 198 197 196 194 193 193 192 190 188
194 197 221 243 250 254 262 271 276 273 270 263 261 260 255 247 245 238 236 234 238 240 235 231 231 225 221 220 218 214 210 208 205 202 201 199 198 197 196 195 194 193 192
187 184 223 247 258 268 268 262 260 273 269 267 265 263 258 253 251 246 241 238 234 239 237 232 229 225 224 223 220 218 214 211 208 205 203 201 200 200 199 197 197 195 194
280 193 248 263 273 278 276 277 251 244 266 272 269 261 255 251 249 249 244 240 236 234 231 233 230 225 225 227 225 223 219 214 210 208 207 205 203 202 201 200 199 198 197
11 10 278 290 300 288 284 279 273 255 257 271 282 279 265 254 247 243 243 241 237 235 231 231 228 228 228 228 229 227 224 220 214 212 210 208 206 203 202 202 202 200 199
4 349 319 312 298 268 267 267 262 274 274 272 289 293 279 257 248 244 239 237 238 237 232 227 222 219 223 226 227 226 225 224 219 215 212 210 208 204 202 203 203 203 202
346 337 320 299 289 278 282 267 236 249 267 246 249 301 310 312 290 252 241 237 240 238 236 232 224 220 220 219 222 224 224 224 223 218 213 210 208 205 204 204 203 204 204
333 327 313 294 285 264 265 262 232 222 244 260 223 232 275 291 312 294 261 249 246 241 241 235 227 222 220 220 222 224 222 222 223 221 216 210 207 205 204 204 204 205 206
312 308 301 295 286 272 264 262 237 218 217 243 254 235 237 251 281 307 303 278 267 257 250 243 236 225 220 219 219 216 218 219 221 221 218 212 208 205 204 206 207 207 207
305 297 290 287 282 273 266 262 257 233 220 225 228 239 250 250 243 260 288 302 297 270 258 247 240 230 221 218 218 217 215 216 217 218 215 211 207 205 205 207 211 211 210
296 291 286 274 271 265 264 261 252 243 235 234 233 228 228 239 248 251 272 292 296 288 277 259 244 236 227 219 220 216 212 213 213 213 212 209 206 204 206 209 212 214 213
281 284 288 276 269 260 262 260 254 250 240 237 238 236 233 237 241 246 263 279 285 289 284 270 261 258 239 219 218 213 211 206 207 209 208 207 205 203 203 206 209 212 214
265 272 276 271 269 266 265 258 255 255 245 241 245 242 241 244 238 236 241 267 290 288 278 281 282 270 260 230 215 205 210 204 203 206 204 202 201 200 199 201 205 207 210
269 270 269 270 269 267 262 255 252 258 255 249 247 245 243 246 241 241 241 240 256 285 290 293 300 323 315 271 214 196 201 203 200 199 197 196 197 196 195 196 198 200 202
272 278 277 272 270 268 263 255 254 256 255 254 247 245 245 245 244 240 239 241 238 247 271 290 294 309 321 334 137 166 166 174 182 186 187 190 191 191 190 191 193 195 197
277 275 274 274 272 268 264 256 254 255 253 256 254 247 249 245 243 243 238 240 240 238 256 270 265 286 285 217 101 101 111 124 139 158 167 176 181 182 183 186 189 192 194
277 274 273 274 272 269 261 255 257 257 250 253 253 248 251 247 239 239 236 238 239 237 245 260 262 261 260 208 143 121 111 105 109 128 140 149 157 161 167 173 177 182 185
279 278 272 269 269 268 265 260 254 255 252 251 250 247 248 244 242 237 233 235 236 239 238 250 257 248 240 191 146 124 116 107 101 112 114 123 133 139 147 155 162 168 172
278 276 273 268 266 266 265 264 260 256 254 253 250 247 246 241 240 238 234 233 232 232 233 242 243 241 229 185 164 157 143 125 115 107 101 103 111 112 120 133 144 151 154
281 276 277 275 270 266 261 257 255 256 254 255 254 249 246 243 240 236 230 226 223 223 224 230 233 227 210 190 184 166 155 136 114 125 120 109 110 108 108 115 124 134 141
285 282 278 277 275 270 267 264 263 260 256 254 255 253 250 253 251 245 237 230 218 216 218 219 226 225 212 197 182 167 156 157 152 147 129 111 103 103 94 100 117 126 132
285 285 283 279 275 273 270 270 270 265 256 253 251 251 252 248 238 239 241 238 231 224 215 211 218 222 213 197 184 178 174 167 149 152 134 116 104 99 83 92 111 120 126
285 284 283 281 278 277 275 273 273 270 260 255 251 246 245 247 242 232 236 237 234 230 223 220 221 223 217 202 190 182 163 138 116 138 136 124 121 103 86 82 99 114 120
290 287 283 282 280 281 277 275 274 269 261 259 256 249 242 242 238 228 229 235 236 236 231 222 219 223 213 200 182 167 163 159 155 154 136 122 126 110 92 77 86 104 115
287 289 287 284 279 279 280 280 279 266 263 263 261 254 244 238 235 225 224 226 229 229 220 213 214 220 213 199 188 185 179 174 159 155 155 128 134 134 122 96 87 102 106